Tracking 17143 objects as of 30-June-2015
HD Live streaming from Space Station

TERRIERS

Track TERRIERS now!
10-day predictions
TERRIERS is classified as:


NORAD ID: 25735
Int'l Code: 1999-026A
Perigee: 449.0 km
Apogee: 458.5 km
Inclination: 97.1 °
Period: 93.5 minutes
Semi major axis: 6824 km
RCS: 0.4968 m2 (medium)
Launch date: May 18, 1999
Source: United States (US)
Your satellite tracking list
Your tracking list is empty





NASA's NSSDC Master Catalog

Two Line Element Set (TLE):
1 25735U 99026A   15181.23279538  .00002763  00000-0  71612-4 0  9992
2 25735 097.1149 349.4502 0006956 105.3507 000.9209 15.39835250895585

Source of the keplerian elements: AFSPC

N2YO: 299